Private Wetterstation Wechselburg
Wetterdaten: Montag, 05.10.2009
Datum Zeit Temp. +2m Bodentemp. Temp.+5cm Temp. Wind Windchill X Diff Temp. Feuchte +2m Feuchte +5cm Sonnenschein Luftdruck Regen Wind Richtung Richtung Sonnenschein UV Taupunkt Windchill Windben
05.10.2009 00:00 10,7 C 13,6 C 9,7 C 9,9 C 8,4 C 0,0 C 85 % 91 % 0 % 1013,9 hPa 0,0 l/m 6,8 km/h (2 Bft) SW 225 0 min 0,0 UV-I 8,3 C 7,4 C 12,9 km/h (3 Bft)
05.10.2009 00:06 10,7 C 13,6 C 9,7 C 10,0 C 8,7 C 0,0 C 85 % 92 % 0 % 1014,4 hPa 0,0 l/m 5,8 km/h (2 Bft) SW 225 0 min 0,0 UV-I 8,3 C 8,0 C 9,2 km/h (2 Bft)
05.10.2009 00:10 10,7 C 13,6 C 9,7 C 10,0 C 8,7 C 0,0 C 85 % 92 % 0 % 1014,4 hPa 0,0 l/m 5,8 km/h (2 Bft) SW 225 0 min 0,0 UV-I 8,3 C 8,0 C 9,2 km/h (2 Bft)
05.10.2009 00:15 10,7 C 13,6 C 9,7 C 10,1 C 8,8 C 0,0 C 85 % 91 % 0 % 1014,4 hPa 0,0 l/m 5,5 km/h (1 Bft) SW 225 0 min 0,0 UV-I 8,3 C 8,2 C 7,2 km/h (2 Bft)
05.10.2009 00:20 10,7 C 13,6 C 9,6 C 10,1 C 8,9 C 0,0 C 84 % 91 % 0 % 1014,4 hPa 0,0 l/m 4,8 km/h (1 Bft) SW 225 0 min 0,0 UV-I 8,1 C 8,6 C 7,7 km/h (2 Bft)
05.10.2009 00:25 10,7 C 13,6 C 9,6 C 10,1 C 9,0 C 0,0 C 84 % 91 % 0 % 1014,6 hPa 0,0 l/m 4,2 km/h (1 Bft) W-SW 247 0 min 0,0 UV-I 8,1 C 9,0 C 8,0 km/h (2 Bft)
05.10.2009 00:30 10,6 C 13,6 C 9,6 C 10,0 C 8,8 C 0,0 C 84 % 91 % 0 % 1014,6 hPa 0,0 l/m 4,0 km/h (1 Bft) S 180 0 min 0,0 UV-I 8,0 C 8,8 C 3,4 km/h (1 Bft)
05.10.2009 00:35 10,5 C 13,6 C 9,7 C 9,9 C 8,7 C 0,0 C 84 % 91 % 0 % 1014,6 hPa 0,0 l/m 4,3 km/h (1 Bft) W-SW 247 0 min 0,0 UV-I 7,9 C 8,7 C 3,2 km/h (1 Bft)
05.10.2009 00:40 10,5 C 13,6 C 9,6 C 10,0 C 8,9 C 0,0 C 85 % 91 % 0 % 1014,6 hPa 0,0 l/m 3,7 km/h (1 Bft) W-SW 247 0 min 0,0 UV-I 8,1 C 8,9 C 2,9 km/h (1 Bft)
05.10.2009 00:45 10,5 C 13,6 C 9,5 C 9,9 C 8,8 C 0,0 C 85 % 92 % 0 % 1014,8 hPa 0,0 l/m 3,2 km/h (1 Bft) W-SW 247 0 min 0,0 UV-I 8,1 C 8,8 C 4,7 km/h (1 Bft)
05.10.2009 00:50 10,4 C 13,6 C 9,4 C 9,8 C 8,7 C 0,0 C 85 % 92 % 0 % 1014,8 hPa 0,0 l/m 3,1 km/h (1 Bft) SW 225 0 min 0,0 UV-I 8,0 C 8,7 C 2,7 km/h (1 Bft)
05.10.2009 00:55 10,4 C 13,5 C 9,5 C 9,9 C 8,8 C 0,0 C 84 % 91 % 0 % 1014,8 hPa 0,0 l/m 4,0 km/h (1 Bft) SW 225 0 min 0,0 UV-I 7,8 C 8,8 C 8,0 km/h (2 Bft)
05.10.2009 01:00 10,4 C 13,5 C 9,5 C 9,9 C 8,9 C 0,0 C 84 % 92 % 0 % 1014,8 hPa 0,0 l/m 3,5 km/h (1 Bft) SW 225 0 min 0,0 UV-I 7,8 C 8,9 C 6,1 km/h (2 Bft)
05.10.2009 01:10 10,4 C 13,5 C 9,6 C 10,0 C 9,2 C 0,0 C 84 % 92 % 0 % 1015,1 hPa 0,0 l/m 3,9 km/h (1 Bft) W-SW 247 0 min 0,0 UV-I 7,8 C 9,2 C 4,7 km/h (1 Bft)
05.10.2009 01:15 10,4 C 13,5 C 9,6 C 10,0 C 9,3 C 0,0 C 84 % 92 % 0 % 1015,1 hPa 0,0 l/m 3,4 km/h (1 Bft) SW 225 0 min 0,0 UV-I 7,8 C 9,3 C 3,2 km/h (1 Bft)
05.10.2009 01:20 10,4 C 13,5 C 9,6 C 10,0 C 9,2 C 0,0 C 84 % 92 % 0 % 1015,1 hPa 0,0 l/m 2,6 km/h (1 Bft) W-SW 247 0 min 0,0 UV-I 7,8 C 9,2 C 4,7 km/h (1 Bft)
05.10.2009 01:25 10,4 C 13,5 C 9,5 C 10,0 C 9,2 C 0,0 C 84 % 92 % 0 % 1015,2 hPa 0,0 l/m 2,6 km/h (1 Bft) S 180 0 min 0,0 UV-I 7,8 C 9,2 C 0,0 km/h (0 Bft)
05.10.2009 01:30 10,5 C 13,5 C 9,5 C 10,0 C 9,1 C 0,0 C 84 % 92 % 0 % 1015,2 hPa 0,0 l/m 3,5 km/h (1 Bft) SW 225 0 min 0,0 UV-I 7,9 C 9,1 C 4,2 km/h (1 Bft)
05.10.2009 01:35 10,4 C 13,5 C 9,4 C 9,9 C 8,9 C 0,0 C 85 % 92 % 0 % 1015,2 hPa 0,0 l/m 3,2 km/h (1 Bft) SW 225 0 min 0,0 UV-I 8,0 C 8,9 C 3,2 km/h (1 Bft)
05.10.2009 01:40 10,4 C 13,5 C 9,5 C 9,8 C 8,7 C 0,0 C 85 % 92 % 0 % 1015,2 hPa 0,0 l/m 3,4 km/h (1 Bft) S 180 0 min 0,0 UV-I 8,0 C 8,7 C 3,9 km/h (1 Bft)
05.10.2009 01:45 10,4 C 13,5 C 9,4 C 9,8 C 8,7 C 0,0 C 85 % 92 % 0 % 1015,2 hPa 0,0 l/m 3,2 km/h (1 Bft) SW 225 0 min 0,0 UV-I 8,0 C 8,7 C 2,7 km/h (1 Bft)
05.10.2009 01:50 10,3 C 13,5 C 9,3 C 9,7 C 8,6 C 0,0 C 85 % 91 % 0 % 1015,2 hPa 0,0 l/m 3,1 km/h (1 Bft) S-SW 202 0 min 0,0 UV-I 7,9 C 8,6 C 4,5 km/h (1 Bft)
05.10.2009 01:55 10,3 C 13,4 C 9,4 C 9,8 C 8,7 C 0,0 C 84 % 91 % 0 % 1015,2 hPa 0,0 l/m 3,5 km/h (1 Bft) W-SW 247 0 min 0,0 UV-I 7,7 C 8,7 C 6,9 km/h (2 Bft)
05.10.2009 02:00 10,3 C 13,4 C 9,5 C 9,8 C 8,7 C 0,0 C 84 % 91 % 0 % 1015,2 hPa 0,0 l/m 4,3 km/h (1 Bft) SW 225 0 min 0,0 UV-I 7,7 C 8,7 C 5,8 km/h (2 Bft)
05.10.2009 02:10 10,4 C 13,3 C 9,5 C 9,8 C 8,7 C 0,0 C 84 % 91 % 0 % 1015,5 hPa 0,0 l/m 5,6 km/h (1 Bft) S 180 0 min 0,0 UV-I 7,8 C 8,1 C 5,8 km/h (2 Bft)
05.10.2009 02:15 10,4 C 13,3 C 9,5 C 9,9 C 9,0 C 0,0 C 84 % 90 % 0 % 1015,5 hPa 0,0 l/m 5,1 km/h (1 Bft) S-SW 202 0 min 0,0 UV-I 7,8 C 8,6 C 8,0 km/h (2 Bft)
05.10.2009 02:20 10,5 C 13,3 C 9,6 C 10,1 C 9,4 C 0,0 C 84 % 90 % 0 % 1015,5 hPa 0,0 l/m 3,2 km/h (1 Bft) W-SW 247 0 min 0,0 UV-I 7,9 C 9,4 C 7,7 km/h (2 Bft)
05.10.2009 02:25 10,5 C 13,3 C 9,6 C 10,2 C 9,5 C 0,0 C 84 % 90 % 0 % 1015,4 hPa 0,0 l/m 3,5 km/h (1 Bft) W-SW 247 0 min 0,0 UV-I 7,9 C 9,5 C 6,1 km/h (2 Bft)
05.10.2009 02:30 10,4 C 13,3 C 9,6 C 10,1 C 9,4 C 0,0 C 84 % 90 % 0 % 1015,4 hPa 0,0 l/m 5,0 km/h (1 Bft) S-SW 202 0 min 0,0 UV-I 7,8 C 9,1 C 6,3 km/h (2 Bft)
05.10.2009 02:35 10,5 C 13,3 C 9,7 C 10,1 C 9,4 C 0,0 C 84 % 90 % 0 % 1015,4 hPa 0,0 l/m 5,3 km/h (1 Bft) W-SW 247 0 min 0,0 UV-I 7,9 C 9,0 C 7,7 km/h (2 Bft)
05.10.2009 02:40 10,5 C 13,3 C 9,8 C 10,2 C 9,7 C 0,0 C 84 % 90 % 0 % 1015,4 hPa 0,0 l/m 4,8 km/h (1 Bft) W-SW 247 0 min 0,0 UV-I 7,9 C 9,5 C 5,5 km/h (1 Bft)
05.10.2009 02:45 10,5 C 13,3 C 9,9 C 10,3 C 9,8 C 0,0 C 84 % 90 % 0 % 1015,6 hPa 0,0 l/m 4,8 km/h (1 Bft) W-SW 247 0 min 0,0 UV-I 7,9 C 9,6 C 4,2 km/h (1 Bft)
05.10.2009 02:50 10,5 C 13,2 C 9,9 C 10,2 C 9,5 C 0,0 C 84 % 90 % 0 % 1015,6 hPa 0,0 l/m 5,8 km/h (2 Bft) S 180 0 min 0,0 UV-I 7,9 C 9,0 C 5,3 km/h (1 Bft)
05.10.2009 02:55 10,5 C 13,2 C 9,9 C 10,2 C 9,5 C 0,0 C 84 % 89 % 0 % 1015,6 hPa 0,0 l/m 5,8 km/h (2 Bft) SW 225 0 min 0,0 UV-I 7,9 C 9,0 C 7,9 km/h (2 Bft)
05.10.2009 03:00 10,5 C 13,2 C 9,8 C 10,2 C 9,7 C 0,0 C 83 % 89 % 0 % 1015,6 hPa 0,0 l/m 5,1 km/h (1 Bft) S 180 0 min 0,0 UV-I 7,7 C 9,4 C 4,3 km/h (1 Bft)
05.10.2009 03:10 10,5 C 13,2 C 9,9 C 10,2 C 9,5 C 0,0 C 83 % 89 % 0 % 1015,8 hPa 0,0 l/m 5,0 km/h (1 Bft) SW 225 0 min 0,0 UV-I 7,7 C 9,2 C 5,6 km/h (1 Bft)
05.10.2009 03:15 10,5 C 13,2 C 9,7 C 10,1 C 9,4 C 0,0 C 83 % 89 % 0 % 1015,8 hPa 0,0 l/m 5,1 km/h (1 Bft) SW 225 0 min 0,0 UV-I 7,7 C 9,0 C 7,2 km/h (2 Bft)
05.10.2009 03:20 10,4 C 13,2 C 9,7 C 10,0 C 9,3 C 0,0 C 83 % 88 % 0 % 1015,8 hPa 0,0 l/m 4,8 km/h (1 Bft) S-SW 202 0 min 0,0 UV-I 7,6 C 9,0 C 4,3 km/h (1 Bft)
05.10.2009 03:25 10,5 C 13,2 C 9,7 C 10,1 C 9,3 C 0,0 C 83 % 88 % 0 % 1015,9 hPa 0,0 l/m 4,7 km/h (1 Bft) S-SW 202 0 min 0,0 UV-I 7,7 C 9,1 C 3,1 km/h (1 Bft)
05.10.2009 03:30 10,4 C 13,1 C 9,6 C 10,1 C 9,4 C 0,0 C 83 % 89 % 0 % 1015,9 hPa 0,0 l/m 3,5 km/h (1 Bft) S-SW 202 0 min 0,0 UV-I 7,6 C 9,4 C 3,4 km/h (1 Bft)
05.10.2009 03:35 10,4 C 13,2 C 9,6 C 10,1 C 9,4 C 0,0 C 83 % 90 % 0 % 1015,9 hPa 0,0 l/m 2,3 km/h (1 Bft) W-SW 247 0 min 0,0 UV-I 7,6 C 9,4 C 0,0 km/h (0 Bft)
05.10.2009 03:40 10,4 C 13,2 C 9,6 C 10,1 C 9,4 C 0,0 C 83 % 90 % 0 % 1015,9 hPa 0,0 l/m 0,8 km/h (0 Bft) S 180 0 min 0,0 UV-I 7,6 C 9,4 C 0,0 km/h (0 Bft)
05.10.2009 03:45 10,5 C 13,2 C 9,7 C 10,1 C 9,3 C 0,0 C 83 % 90 % 0 % 1016,0 hPa 0,0 l/m 0,0 km/h (0 Bft) W 270 0 min 0,0 UV-I 7,7 C 9,3 C 2,1 km/h (1 Bft)
05.10.2009 03:50 10,4 C 13,2 C 9,6 C 10,0 C 9,3 C 0,0 C 83 % 90 % 0 % 1016,0 hPa 0,0 l/m 0,5 km/h (0 Bft) S 180 0 min 0,0 UV-I 7,6 C 9,3 C 0,0 km/h (0 Bft)
05.10.2009 03:55 10,4 C 13,3 C 9,6 C 10,0 C 9,2 C 0,0 C 83 % 91 % 0 % 1016,0 hPa 0,0 l/m 0,5 km/h (0 Bft) S 180 0 min 0,0 UV-I 7,6 C 9,2 C 0,0 km/h (0 Bft)
05.10.2009 04:00 10,3 C 13,4 C 9,5 C 9,9 C 9,1 C 0,0 C 84 % 91 % 0 % 1016,0 hPa 0,0 l/m 0,0 km/h (0 Bft) S 180 0 min 0,0 UV-I 7,7 C 9,1 C 0,0 km/h (0 Bft)
05.10.2009 04:10 10,1 C 13,5 C 9,5 C 9,7 C 8,9 C 0,0 C 85 % 92 % 0 % 1016,2 hPa 0,0 l/m 0,0 km/h (0 Bft) S 180 0 min 0,0 UV-I 7,7 C 8,9 C 0,0 km/h (0 Bft)
05.10.2009 04:15 10,1 C 13,5 C 9,4 C 9,6 C 8,7 C 0,0 C 85 % 92 % 0 % 1016,2 hPa 0,0 l/m 0,0 km/h (0 Bft) S-SO 157 0 min 0,0 UV-I 7,7 C 8,7 C 0,0 km/h (0 Bft)
05.10.2009 04:20 10,1 C 13,5 C 9,3 C 9,6 C 8,5 C 0,0 C 85 % 92 % 0 % 1016,2 hPa 0,0 l/m 0,0 km/h (0 Bft) SW 225 0 min 0,0 UV-I 7,7 C 8,5 C 0,0 km/h (0 Bft)
05.10.2009 04:25 10,0 C 13,5 C 9,2 C 9,5 C 8,4 C 0,0 C 85 % 92 % 0 % 1016,3 hPa 0,0 l/m 0,0 km/h (0 Bft) SO 135 0 min 0,0 UV-I 7,6 C 8,4 C 0,0 km/h (0 Bft)
05.10.2009 04:30 10,0 C 13,4 C 9,2 C 9,4 C 8,2 C 0,0 C 85 % 92 % 0 % 1016,3 hPa 0,0 l/m 0,0 km/h (0 Bft) O 90 0 min 0,0 UV-I 7,6 C 8,2 C 0,0 km/h (0 Bft)
05.10.2009 04:35 9,9 C 13,5 C 9,1 C 9,3 C 8,1 C 0,0 C 85 % 92 % 0 % 1016,3 hPa 0,0 l/m 0,0 km/h (0 Bft) O-NO 67 0 min 0,0 UV-I 7,5 C 8,1 C 0,0 km/h (0 Bft)
05.10.2009 04:40 9,7 C 13,4 C 9,1 C 9,1 C 8,0 C 0,0 C 85 % 92 % 0 % 1016,3 hPa 0,0 l/m 0,0 km/h (0 Bft) O 90 0 min 0,0 UV-I 7,3 C 8,0 C 0,0 km/h (0 Bft)
05.10.2009 04:45 9,7 C 13,4 C 8,9 C 9,1 C 7,8 C 0,0 C 85 % 92 % 0 % 1016,3 hPa 0,0 l/m 0,0 km/h (0 Bft) O-NO 67 0 min 0,0 UV-I 7,3 C 7,8 C 0,0 km/h (0 Bft)
05.10.2009 04:50 9,5 C 13,4 C 8,8 C 8,8 C 7,5 C 0,0 C 86 % 92 % 0 % 1016,3 hPa 0,0 l/m 0,0 km/h (0 Bft) SO 135 0 min 0,0 UV-I 7,3 C 7,5 C 0,0 km/h (0 Bft)
05.10.2009 04:55 9,6 C 13,4 C 8,8 C 8,8 C 7,3 C 0,0 C 86 % 92 % 0 % 1016,3 hPa 0,0 l/m 0,0 km/h (0 Bft) SO 135 0 min 0,0 UV-I 7,4 C 7,3 C 0,0 km/h (0 Bft)
05.10.2009 05:00 9,5 C 13,4 C 8,7 C 8,7 C 7,0 C 0,0 C 86 % 92 % 0 % 1016,3 hPa 0,0 l/m 0,0 km/h (0 Bft) W-SW 247 0 min 0,0 UV-I 7,3 C 7,0 C 0,0 km/h (0 Bft)
05.10.2009 05:10 9,6 C 13,3 C 8,8 C 8,7 C 7,0 C 0,0 C 86 % 93 % 0 % 1016,5 hPa 0,0 l/m 0,2 km/h (0 Bft) SW 225 0 min 0,0 UV-I 7,4 C 7,0 C 1,6 km/h (1 Bft)
05.10.2009 05:15 9,6 C 13,2 C 8,8 C 8,7 C 7,0 C 0,0 C 86 % 92 % 0 % 1016,5 hPa 0,0 l/m 0,2 km/h (0 Bft) W-SW 247 0 min 0,0 UV-I 7,4 C 7,0 C 0,0 km/h (0 Bft)
05.10.2009 05:20 9,6 C 13,2 C 8,9 C 8,8 C 7,1 C 0,0 C 85 % 92 % 0 % 1016,5 hPa 0,0 l/m 0,3 km/h (0 Bft) S-SO 157 0 min 0,0 UV-I 7,2 C 7,1 C 0,0 km/h (0 Bft)
05.10.2009 05:25 9,7 C 13,2 C 8,8 C 8,8 C 7,1 C 0,0 C 85 % 92 % 0 % 1016,5 hPa 0,0 l/m 0,6 km/h (0 Bft) W-SW 247 0 min 0,0 UV-I 7,3 C 7,1 C 0,0 km/h (0 Bft)
05.10.2009 05:30 9,6 C 13,2 C 8,7 C 8,7 C 7,0 C 0,0 C 85 % 92 % 0 % 1016,5 hPa 0,0 l/m 1,1 km/h (1 Bft) W-SW 247 0 min 0,0 UV-I 7,2 C 7,0 C 0,0 km/h (0 Bft)
05.10.2009 05:35 9,5 C 13,3 C 8,5 C 8,6 C 6,9 C 0,0 C 85 % 92 % 0 % 1016,5 hPa 0,0 l/m 0,8 km/h (0 Bft) SW 225 0 min 0,0 UV-I 7,1 C 6,9 C 0,0 km/h (0 Bft)
05.10.2009 05:40 9,5 C 13,4 C 8,4 C 8,6 C 6,8 C 0,0 C 85 % 92 % 0 % 1016,5 hPa 0,0 l/m 0,3 km/h (0 Bft) SW 225 0 min 0,0 UV-I 7,1 C 6,8 C 1,6 km/h (1 Bft)
05.10.2009 05:45 9,4 C 13,4 C 8,4 C 8,5 C 6,8 C 0,0 C 85 % 92 % 0 % 1016,8 hPa 0,0 l/m 0,3 km/h (0 Bft) SO 135 0 min 0,0 UV-I 7,0 C 6,8 C 2,6 km/h (1 Bft)
05.10.2009 05:50 9,5 C 13,4 C 8,4 C 8,6 C 6,7 C 0,0 C 84 % 92 % 0 % 1016,8 hPa 0,0 l/m 0,8 km/h (0 Bft) O-SO 112 0 min 0,0 UV-I 6,9 C 6,7 C 0,0 km/h (0 Bft)
05.10.2009 05:55 9,2 C 13,5 C 8,3 C 8,3 C 6,6 C 0,0 C 84 % 92 % 0 % 1016,8 hPa 0,0 l/m 0,6 km/h (0 Bft) SO 135 0 min 0,0 UV-I 6,6 C 6,6 C 0,0 km/h (0 Bft)
05.10.2009 06:00 8,9 C 13,5 C 8,0 C 8,1 C 6,4 C 0,0 C 84 % 92 % 0 % 1016,8 hPa 0,0 l/m 0,0 km/h (0 Bft) O-NO 67 0 min 0,0 UV-I 6,3 C 6,4 C 0,0 km/h (0 Bft)
05.10.2009 06:10 8,8 C 13,4 C 7,9 C 7,9 C 6,2 C 0,0 C 85 % 92 % 0 % 1016,8 hPa 0,0 l/m 0,0 km/h (0 Bft) O-SO 112 0 min 0,0 UV-I 6,4 C 6,2 C 0,0 km/h (0 Bft)
05.10.2009 06:15 8,6 C 13,5 C 7,9 C 7,8 C 6,2 C 0,0 C 85 % 92 % 0 % 1016,8 hPa 0,0 l/m 0,2 km/h (0 Bft) NO 45 0 min 0,0 UV-I 6,2 C 6,2 C 2,3 km/h (1 Bft)
05.10.2009 06:20 8,5 C 13,4 C 7,7 C 7,7 C 6,2 C 0,0 C 85 % 92 % 0 % 1016,8 hPa 0,0 l/m 0,2 km/h (0 Bft) O-SO 112 0 min 0,0 UV-I 6,1 C 6,2 C 0,0 km/h (0 Bft)
05.10.2009 06:25 8,4 C 13,4 C 7,7 C 7,7 C 6,2 C 0,0 C 85 % 92 % 0 % 1016,8 hPa 0,0 l/m 0,2 km/h (0 Bft) NO 45 0 min 0,0 UV-I 6,0 C 6,2 C 0,0 km/h (0 Bft)
05.10.2009 06:30 8,5 C 13,4 C 7,6 C 7,7 C 6,2 C 0,0 C 86 % 93 % 0 % 1016,8 hPa 0,0 l/m 0,0 km/h (0 Bft) N-NO 22 0 min 0,0 UV-I 6,3 C 6,2 C 0,0 km/h (0 Bft)
05.10.2009 06:35 8,5 C 13,4 C 7,7 C 7,8 C 6,4 C 0,0 C 86 % 93 % 0 % 1016,8 hPa 0,0 l/m 0,0 km/h (0 Bft) O-NO 67 0 min 0,0 UV-I 6,3 C 6,4 C 0,0 km/h (0 Bft)
05.10.2009 06:40 8,5 C 13,4 C 7,7 C 7,8 C 6,4 C 0,0 C 87 % 93 % 0 % 1016,8 hPa 0,0 l/m 0,0 km/h (0 Bft) O-NO 67 0 min 0,0 UV-I 6,5 C 6,4 C 0,0 km/h (0 Bft)
05.10.2009 06:45 8,7 C 13,4 C 7,7 C 7,9 C 6,4 C 0,0 C 87 % 93 % 0 % 1017,1 hPa 0,0 l/m 0,0 km/h (0 Bft) SO 135 0 min 0,0 UV-I 6,7 C 6,4 C 0,0 km/h (0 Bft)
05.10.2009 06:50 8,5 C 13,4 C 7,7 C 7,8 C 6,4 C 0,0 C 86 % 93 % 0 % 1017,1 hPa 0,0 l/m 0,0 km/h (0 Bft) O-NO 67 0 min 0,0 UV-I 6,3 C 6,4 C 0,0 km/h (0 Bft)
05.10.2009 06:55 8,4 C 13,4 C 7,6 C 7,7 C 6,4 C 0,0 C 86 % 93 % 0 % 1017,1 hPa 0,0 l/m 0,0 km/h (0 Bft) O-NO 67 0 min 0,0 UV-I 6,2 C 6,4 C 0,0 km/h (0 Bft)
05.10.2009 07:00 8,4 C 13,4 C 7,6 C 7,7 C 6,2 C 0,0 C 87 % 93 % 0 % 1017,1 hPa 0,0 l/m 0,0 km/h (0 Bft) O-NO 67 0 min 0,0 UV-I 6,4 C 6,2 C 0,0 km/h (0 Bft)
05.10.2009 07:10 8,3 C 13,4 C 7,4 C 7,6 C 6,2 C 0,0 C 87 % 93 % 0 % 1017,4 hPa 0,0 l/m 0,0 km/h (0 Bft) O-NO 67 0 min 0,0 UV-I 6,3 C 6,2 C 0,0 km/h (0 Bft)
05.10.2009 07:15 8,2 C 13,4 C 7,5 C 7,5 C 6,2 C 0,0 C 87 % 93 % 0 % 1017,4 hPa 0,0 l/m 0,0 km/h (0 Bft) O-NO 67 0 min 0,0 UV-I 6,2 C 6,2 C 0,0 km/h (0 Bft)
05.10.2009 07:20 8,2 C 13,4 C 7,4 C 7,5 C 6,2 C 0,0 C 86 % 93 % 0 % 1017,4 hPa 0,0 l/m 0,0 km/h (0 Bft) O-NO 67 0 min 0,0 UV-I 6,0 C 6,2 C 0,0 km/h (0 Bft)
05.10.2009 07:25 8,1 C 13,4 C 7,4 C 7,4 C 6,0 C 0,0 C 86 % 93 % 0 % 1017,6 hPa 0,0 l/m 0,0 km/h (0 Bft) O-NO 67 0 min 0,0 UV-I 5,9 C 6,0 C 0,0 km/h (0 Bft)
05.10.2009 07:30 8,1 C 13,4 C 7,2 C 7,4 C 6,0 C 0,0 C 87 % 93 % 0 % 1017,6 hPa 0,0 l/m 0,0 km/h (0 Bft) O-NO 67 0 min 0,0 UV-I 6,1 C 6,0 C 0,0 km/h (0 Bft)
05.10.2009 07:35 8,1 C 13,3 C 7,3 C 7,4 C 6,0 C 0,0 C 87 % 94 % 0 % 1017,6 hPa 0,0 l/m 0,0 km/h (0 Bft) O-NO 67 0 min 0,0 UV-I 6,1 C 6,0 C 0,0 km/h (0 Bft)
05.10.2009 07:40 8,1 C 13,3 C 7,2 C 7,5 C 6,2 C 0,0 C 87 % 93 % 0 % 1017,6 hPa 0,0 l/m 0,0 km/h (0 Bft) O-NO 67 0 min 0,0 UV-I 6,1 C 6,2 C 0,0 km/h (0 Bft)
05.10.2009 07:45 8,1 C 13,3 C 7,3 C 7,5 C 6,3 C 0,0 C 88 % 94 % 0 % 1017,9 hPa 0,0 l/m 0,0 km/h (0 Bft) O-NO 67 0 min 0,0 UV-I 6,2 C 6,3 C 0,0 km/h (0 Bft)
05.10.2009 07:50 8,2 C 13,3 C 7,3 C 7,6 C 6,3 C 0,0 C 88 % 94 % 0 % 1017,9 hPa 0,0 l/m 0,0 km/h (0 Bft) SW 225 0 min 0,0 UV-I 6,3 C 6,3 C 0,0 km/h (0 Bft)
05.10.2009 07:55 8,3 C 13,3 C 7,3 C 7,7 C 6,4 C 0,0 C 88 % 94 % 0 % 1017,9 hPa 0,0 l/m 0,0 km/h (0 Bft) W-SW 247 0 min 0,0 UV-I 6,4 C 6,4 C 0,0 km/h (0 Bft)
05.10.2009 08:00 8,3 C 13,3 C 7,5 C 7,7 C 6,6 C 0,0 C 88 % 94 % 0 % 1017,9 hPa 0,0 l/m 0,0 km/h (0 Bft) W 270 0 min 0,0 UV-I 6,4 C 6,6 C 0,0 km/h (0 Bft)
05.10.2009 08:10 8,5 C 13,3 C 7,7 C 8,0 C 7,0 C 0,0 C 88 % 95 % 0 % 1018,3 hPa 0,0 l/m 0,0 km/h (0 Bft) S 180 0 min 0,0 UV-I 6,6 C 7,0 C 0,0 km/h (0 Bft)
05.10.2009 08:15 8,7 C 13,2 C 7,9 C 8,2 C 7,2 C 0,0 C 88 % 95 % 0 % 1018,3 hPa 0,0 l/m 0,0 km/h (0 Bft) W-SW 247 0 min 0,0 UV-I 6,8 C 7,2 C 0,0 km/h (0 Bft)
05.10.2009 08:20 8,7 C 13,2 C 7,8 C 8,2 C 7,3 C 0,0 C 88 % 94 % 0 % 1018,3 hPa 0,0 l/m 0,0 km/h (0 Bft) W-SW 247 0 min 0,0 UV-I 6,8 C 7,3 C 0,0 km/h (0 Bft)
05.10.2009 08:25 8,7 C 13,2 C 7,9 C 8,3 C 7,5 C 0,0 C 88 % 94 % 0 % 1018,2 hPa 0,0 l/m 0,0 km/h (0 Bft) W-SW 247 0 min 0,0 UV-I 6,8 C 7,5 C 0,0 km/h (0 Bft)
05.10.2009 08:30 8,8 C 13,0 C 8,0 C 8,5 C 7,8 C 0,0 C 87 % 94 % 0 % 1018,2 hPa 0,0 l/m 0,0 km/h (0 Bft) W-SW 247 0 min 0,0 UV-I 6,8 C 7,8 C 0,0 km/h (0 Bft)
05.10.2009 08:35 8,8 C 13,0 C 8,0 C 8,5 C 7,9 C 0,0 C 88 % 94 % 0 % 1018,2 hPa 0,0 l/m 0,0 km/h (0 Bft) NO 45 0 min 0,0 UV-I 6,9 C 7,9 C 0,0 km/h (0 Bft)
05.10.2009 08:40 8,8 C 13,1 C 8,1 C 8,6 C 8,2 C 0,0 C 87 % 94 % 0 % 1018,2 hPa 0,0 l/m 0,0 km/h (0 Bft) NO 45 0 min 0,0 UV-I 6,8 C 8,2 C 0,0 km/h (0 Bft)
05.10.2009 08:45 8,9 C 13,0 C 8,3 C 8,7 C 8,4 C 0,0 C 87 % 94 % 0 % 1018,2 hPa 0,0 l/m 0,0 km/h (0 Bft) NO 45 0 min 0,0 UV-I 6,9 C 8,4 C 0,0 km/h (0 Bft)
05.10.2009 08:50 9,1 C 13,0 C 8,4 C 8,9 C 8,6 C 0,0 C 87 % 95 % 0 % 1018,2 hPa 0,0 l/m 0,0 km/h (0 Bft) SW 225 0 min 0,0 UV-I 7,1 C 8,6 C 0,0 km/h (0 Bft)
05.10.2009 08:55 9,0 C 13,0 C 8,5 C 8,9 C 8,8 C 0,0 C 87 % 94 % 0 % 1018,2 hPa 0,0 l/m 0,0 km/h (0 Bft) S 180 0 min 0,0 UV-I 7,0 C 8,8 C 0,0 km/h (0 Bft)
05.10.2009 09:00 9,2 C 12,9 C 8,5 C 9,1 C 9,0 C 0,0 C 87 % 94 % 0 % 1018,2 hPa 0,0 l/m 0,0 km/h (0 Bft) W-SW 247 0 min 0,0 UV-I 7,2 C 9,0 C 0,0 km/h (0 Bft)
05.10.2009 09:10 9,2 C 13,0 C 8,7 C 9,4 C 9,4 C 0,2 C 87 % 94 % 5 % 1018,5 hPa 0,0 l/m 0,0 km/h (0 Bft) W-SW 247 0 min 0,0 UV-I 7,2 C 9,4 C 0,0 km/h (0 Bft)
05.10.2009 09:15 9,3 C 12,9 C 8,8 C 9,4 C 9,4 C 0,1 C 87 % 94 % 3 % 1018,5 hPa 0,0 l/m 0,2 km/h (0 Bft) SW 225 0 min 0,0 UV-I 7,2 C 9,4 C 1,9 km/h (1 Bft)
05.10.2009 09:20 9,3 C 12,9 C 8,8 C 9,3 C 9,3 C 0,0 C 88 % 94 % 0 % 1018,5 hPa 0,0 l/m 0,3 km/h (0 Bft) SW 225 0 min 0,0 UV-I 7,4 C 9,3 C 0,0 km/h (0 Bft)
05.10.2009 09:25 9,4 C 12,9 C 8,8 C 9,3 C 9,2 C 0,0 C 88 % 94 % 0 % 1018,5 hPa 0,0 l/m 0,2 km/h (0 Bft) S 180 0 min 0,1 UV-I 7,5 C 9,2 C 0,0 km/h (0 Bft)
05.10.2009 09:30 9,3 C 13,0 C 8,8 C 9,2 C 8,9 C 0,0 C 87 % 94 % 0 % 1018,5 hPa 0,0 l/m 0,0 km/h (0 Bft) S 180 0 min 0,1 UV-I 7,2 C 8,9 C 0,0 km/h (0 Bft)
05.10.2009 09:35 9,5 C 13,0 C 8,9 C 9,3 C 8,9 C 0,0 C 88 % 94 % 0 % 1018,5 hPa 0,0 l/m 0,2 km/h (0 Bft) SW 225 0 min 0,1 UV-I 7,6 C 8,9 C 1,9 km/h (1 Bft)
05.10.2009 09:40 9,4 C 12,9 C 8,9 C 9,2 C 8,9 C 0,0 C 87 % 94 % 0 % 1018,5 hPa 0,0 l/m 0,2 km/h (0 Bft) S 180 0 min 0,2 UV-I 7,3 C 8,9 C 0,0 km/h (0 Bft)
05.10.2009 09:45 9,5 C 12,8 C 8,9 C 9,3 C 8,9 C 0,0 C 86 % 93 % 0 % 1018,8 hPa 0,0 l/m 0,3 km/h (0 Bft) W-SW 247 0 min 0,2 UV-I 7,3 C 8,9 C 0,0 km/h (0 Bft)
05.10.2009 09:50 9,6 C 12,8 C 9,1 C 9,4 C 9,1 C 0,0 C 86 % 93 % 0 % 1018,8 hPa 0,0 l/m 0,8 km/h (0 Bft) W 270 0 min 0,2 UV-I 7,4 C 9,1 C 0,0 km/h (0 Bft)
05.10.2009 09:55 9,6 C 12,8 C 9,1 C 9,5 C 9,2 C 0,0 C 85 % 93 % 0 % 1018,8 hPa 0,0 l/m 1,0 km/h (0 Bft) W 270 0 min 0,2 UV-I 7,2 C 9,2 C 0,0 km/h (0 Bft)
05.10.2009 10:00 9,7 C 12,7 C 9,1 C 9,6 C 9,5 C 0,0 C 84 % 91 % 0 % 1018,8 hPa 0,0 l/m 2,6 km/h (1 Bft) SW 225 0 min 0,2 UV-I 7,1 C 9,5 C 4,3 km/h (1 Bft)
05.10.2009 10:10 9,9 C 12,6 C 9,3 C 9,9 C 9,9 C 0,0 C 82 % 90 % 0 % 1019,0 hPa 0,0 l/m 2,4 km/h (1 Bft) S 180 0 min 0,3 UV-I 7,0 C 9,9 C 0,0 km/h (0 Bft)
05.10.2009 10:15 10,0 C 12,6 C 9,3 C 10,1 C 10,1 C 0,1 C 82 % 89 % 3 % 1019,0 hPa 0,0 l/m 2,1 km/h (1 Bft) S-SO 157 0 min 0,3 UV-I 7,1 C 10,1 C 0,0 km/h (0 Bft)
05.10.2009 10:20 10,1 C 12,6 C 9,5 C 10,3 C 10,3 C 0,2 C 81 % 89 % 5 % 1019,0 hPa 0,0 l/m 1,0 km/h (0 Bft) S-SW 202 0 min 0,3 UV-I 7,0 C 10,3 C 0,0 km/h (0 Bft)
05.10.2009 10:25 10,0 C 12,6 C 9,5 C 10,3 C 10,3 C 0,3 C 81 % 89 % 8 % 1019,1 hPa 0,0 l/m 0,6 km/h (0 Bft) SW 225 0 min 0,3 UV-I 6,9 C 10,3 C 5,3 km/h (1 Bft)
05.10.2009 10:30 10,2 C 12,6 C 9,5 C 10,4 C 10,4 C 0,2 C 81 % 89 % 5 % 1019,1 hPa 0,0 l/m 2,3 km/h (1 Bft) S 180 0 min 0,4 UV-I 7,1 C 10,4 C 2,9 km/h (1 Bft)
05.10.2009 10:35 10,3 C 12,7 C 9,6 C 10,5 C 10,5 C 0,2 C 81 % 89 % 5 % 1019,1 hPa 0,0 l/m 3,1 km/h (1 Bft) SW 225 0 min 0,4 UV-I 7,2 C 10,5 C 4,2 km/h (1 Bft)
05.10.2009 10:40 10,3 C 12,6 C 9,7 C 10,5 C 10,5 C 0,2 C 80 % 88 % 5 % 1019,1 hPa 0,0 l/m 1,6 km/h (1 Bft) W 270 0 min 0,4 UV-I 7,0 C 10,5 C 0,0 km/h (0 Bft)
05.10.2009 10:45 10,5 C 12,6 C 9,9 C 10,6 C 10,6 C 0,1 C 79 % 88 % 3 % 1019,2 hPa 0,0 l/m 1,6 km/h (1 Bft) S-SW 202 0 min 0,4 UV-I 7,0 C 10,6 C 2,1 km/h (1 Bft)
05.10.2009 10:50 10,4 C 12,6 C 9,9 C 10,7 C 10,7 C 0,3 C 79 % 87 % 8 % 1019,2 hPa 0,0 l/m 1,9 km/h (1 Bft) O-NO 67 0 min 0,5 UV-I 6,9 C 10,7 C 0,0 km/h (0 Bft)
05.10.2009 10:55 10,5 C 12,6 C 9,9 C 10,7 C 10,7 C 0,2 C 78 % 86 % 5 % 1019,2 hPa 0,0 l/m 1,4 km/h (1 Bft) S 180 0 min 0,5 UV-I 6,8 C 10,7 C 3,4 km/h (1 Bft)
05.10.2009 11:00 10,6 C 12,6 C 9,9 C 10,8 C 10,8 C 0,2 C 77 % 85 % 5 % 1019,2 hPa 0,0 l/m 0,6 km/h (0 Bft) S 180 0 min 0,5 UV-I 6,7 C 10,8 C 0,0 km/h (0 Bft)
05.10.2009 11:10 10,8 C 12,6 C 10,1 C 11,1 C 11,1 C 0,3 C 75 % 84 % 8 % 1018,9 hPa 0,0 l/m 1,8 km/h (1 Bft) O-NO 67 0 min 0,6 UV-I 6,5 C 11,1 C 0,0 km/h (0 Bft)
05.10.2009 11:15 10,8 C 12,6 C 10,3 C 11,3 C 11,3 C 0,5 C 74 % 84 % 13 % 1018,9 hPa 0,0 l/m 1,6 km/h (1 Bft) N-NO 22 0 min 0,6 UV-I 6,4 C 11,3 C 0,0 km/h (0 Bft)
05.10.2009 11:20 10,9 C 12,5 C 10,3 C 11,4 C 11,4 C 0,5 C 74 % 84 % 13 % 1018,9 hPa 0,0 l/m 0,5 km/h (0 Bft) O-SO 112 0 min 0,7 UV-I 6,5 C 11,4 C 1,9 km/h (1 Bft)
05.10.2009 11:25 11,0 C 12,5 C 10,4 C 11,5 C 11,5 C 0,5 C 75 % 83 % 13 % 1019,0 hPa 0,0 l/m 0,6 km/h (0 Bft) S 180 0 min 0,7 UV-I 6,7 C 11,5 C 0,0 km/h (0 Bft)
05.10.2009 11:30 11,1 C 12,5 C 10,4 C 11,6 C 11,6 C 0,5 C 75 % 83 % 13 % 1019,0 hPa 0,0 l/m 1,9 km/h (1 Bft) S 180 0 min 0,7 UV-I 6,8 C 11,6 C 0,0 km/h (0 Bft)
05.10.2009 11:35 11,2 C 12,5 C 10,5 C 11,7 C 11,7 C 0,5 C 74 % 83 % 13 % 1019,0 hPa 0,0 l/m 1,4 km/h (1 Bft) SW 225 0 min 0,7 UV-I 6,7 C 11,7 C 0,0 km/h (0 Bft)
05.10.2009 11:40 11,3 C 12,5 C 10,5 C 11,9 C 11,9 C 0,6 C 74 % 83 % 16 % 1019,0 hPa 0,0 l/m 0,2 km/h (0 Bft) O-NO 67 0 min 0,7 UV-I 6,8 C 11,9 C 1,9 km/h (1 Bft)
05.10.2009 11:45 11,4 C 12,5 C 10,7 C 12,1 C 12,1 C 0,7 C 74 % 82 % 18 % 1018,9 hPa 0,0 l/m 0,6 km/h (0 Bft) S 180 0 min 0,8 UV-I 6,9 C 12,1 C 2,6 km/h (1 Bft)
05.10.2009 11:50 11,5 C 12,5 C 10,7 C 12,3 C 12,3 C 0,8 C 73 % 80 % 21 % 1018,9 hPa 0,0 l/m 1,4 km/h (1 Bft) SW 225 0 min 0,8 UV-I 6,8 C 12,3 C 0,0 km/h (0 Bft)
05.10.2009 11:55 11,5 C 12,5 C 10,8 C 12,3 C 12,3 C 0,8 C 73 % 80 % 21 % 1018,9 hPa 0,0 l/m 2,1 km/h (1 Bft) W-SW 247 0 min 0,8 UV-I 6,8 C 12,3 C 5,1 km/h (1 Bft)
05.10.2009 12:00 11,5 C 12,5 C 10,8 C 12,3 C 12,3 C 0,8 C 72 % 79 % 21 % 1018,9 hPa 0,0 l/m 2,6 km/h (1 Bft) S 180 0 min 0,8 UV-I 6,6 C 12,3 C 2,6 km/h (1 Bft)
05.10.2009 12:10 11,6 C 12,5 C 10,9 C 12,3 C 12,3 C 0,7 C 69 % 75 % 18 % 1019,1 hPa 0,0 l/m 2,9 km/h (1 Bft) SW 225 0 min 0,8 UV-I 6,1 C 12,3 C 0,0 km/h (0 Bft)
05.10.2009 12:15 11,6 C 12,5 C 10,9 C 12,3 C 12,3 C 0,7 C 69 % 73 % 18 % 1019,1 hPa 0,0 l/m 1,4 km/h (1 Bft) W 270 0 min 0,9 UV-I 6,1 C 12,3 C 0,0 km/h (0 Bft)
05.10.2009 12:20 11,6 C 12,5 C 10,9 C 12,8 C 12,8 C 1,2 C 68 % 75 % 32 % 1019,1 hPa 0,0 l/m 0,5 km/h (0 Bft) SO 135 0 min 1,3 UV-I 5,9 C 12,8 C 4,2 km/h (1 Bft)
05.10.2009 12:25 11,7 C 12,5 C 11,1 C 13,3 C 13,3 C 1,6 C 69 % 76 % 42 % 1018,8 hPa 0,0 l/m 0,5 km/h (0 Bft) O-NO 67 0 min 1,3 UV-I 6,2 C 13,3 C 0,0 km/h (0 Bft)
05.10.2009 12:30 11,7 C 12,5 C 11,0 C 15,4 C 15,4 C 3,7 C 69 % 74 % 97 % 1018,8 hPa 0,0 l/m 1,3 km/h (1 Bft) SW 225 5 min 1,5 UV-I 6,2 C 15,4 C 4,7 km/h (1 Bft)
05.10.2009 12:35 11,8 C 12,5 C 11,1 C 16,2 C 16,2 C 4,4 C 67 % 75 % 100 % 1018,8 hPa 0,0 l/m 1,9 km/h (1 Bft) S-SO 157 5 min 1,4 UV-I 5,9 C 16,2 C 0,0 km/h (0 Bft)
05.10.2009 12:40 12,0 C 12,5 C 11,2 C 17,3 C 17,3 C 5,3 C 67 % 71 % 100 % 1018,8 hPa 0,0 l/m 2,7 km/h (1 Bft) W-NW 292 5 min 1,3 UV-I 6,1 C 17,3 C 2,9 km/h (1 Bft)
05.10.2009 12:45 12,0 C 12,5 C 11,2 C 17,6 C 17,6 C 5,6 C 66 % 71 % 100 % 1018,7 hPa 0,0 l/m 2,7 km/h (1 Bft) W-SW 247 5 min 1,0 UV-I 5,8 C 17,6 C 4,3 km/h (1 Bft)
05.10.2009 12:50 12,0 C 12,5 C 11,3 C 17,9 C 17,9 C 5,9 C 64 % 71 % 100 % 1018,7 hPa 0,0 l/m 2,4 km/h (1 Bft) O-NO 67 5 min 1,5 UV-I 5,4 C 17,9 C 0,0 km/h (0 Bft)
05.10.2009 12:55 12,1 C 12,5 C 11,4 C 18,4 C 18,4 C 6,3 C 65 % 71 % 100 % 1018,7 hPa 0,0 l/m 1,3 km/h (1 Bft) NW 315 5 min 1,4 UV-I 5,7 C 18,4 C 2,6 km/h (1 Bft)
05.10.2009 13:00 12,3 C 12,5 C 11,4 C 18,7 C 18,7 C 6,4 C 65 % 73 % 100 % 1018,7 hPa 0,0 l/m 1,3 km/h (1 Bft) NW 315 5 min 1,4 UV-I 5,9 C 18,7 C 0,0 km/h (0 Bft)
05.10.2009 13:10 12,3 C 12,5 C 11,5 C 19,7 C 19,7 C 7,4 C 65 % 70 % 100 % 1018,3 hPa 0,0 l/m 1,0 km/h (0 Bft) S 180 10 min 1,1 UV-I 5,9 C 19,7 C 2,7 km/h (1 Bft)
05.10.2009 13:15 12,4 C 12,5 C 11,5 C 19,8 C 19,8 C 7,4 C 65 % 72 % 100 % 1018,3 hPa 0,0 l/m 1,1 km/h (1 Bft) W-SW 247 5 min 1,1 UV-I 6,0 C 19,8 C 0,0 km/h (0 Bft)
05.10.2009 13:20 12,5 C 12,5 C 11,8 C 19,6 C 19,6 C 7,1 C 65 % 71 % 100 % 1018,3 hPa 0,0 l/m 3,1 km/h (1 Bft) SW 225 5 min 1,0 UV-I 6,1 C 19,6 C 6,4 km/h (2 Bft)
05.10.2009 13:25 12,7 C 12,5 C 11,9 C 19,3 C 19,3 C 6,6 C 66 % 71 % 100 % 1018,4 hPa 0,0 l/m 3,4 km/h (1 Bft) S-SW 202 5 min 0,9 UV-I 6,5 C 19,3 C 3,2 km/h (1 Bft)
05.10.2009 13:30 12,6 C 12,6 C 12,0 C 19,4 C 19,4 C 6,8 C 64 % 71 % 100 % 1018,4 hPa 0,0 l/m 2,4 km/h (1 Bft) N-NW 337 5 min 1,0 UV-I 6,0 C 19,4 C 0,0 km/h (0 Bft)
05.10.2009 13:35 12,7 C 12,6 C 12,0 C 19,8 C 19,8 C 7,1 C 66 % 72 % 100 % 1018,4 hPa 0,0 l/m 1,4 km/h (1 Bft) S 180 5 min 1,0 UV-I 6,5 C 19,8 C 5,6 km/h (1 Bft)
05.10.2009 13:40 12,9 C 12,6 C 12,2 C 19,9 C 19,9 C 7,0 C 65 % 70 % 100 % 1018,4 hPa 0,0 l/m 1,4 km/h (1 Bft) S 180 5 min 1,0 UV-I 6,5 C 19,9 C 5,8 km/h (2 Bft)
05.10.2009 13:45 12,8 C 12,6 C 12,2 C 19,3 C 19,3 C 6,5 C 65 % 70 % 100 % 1018,6 hPa 0,0 l/m 2,7 km/h (1 Bft) W 270 5 min 1,0 UV-I 6,4 C 19,3 C 4,5 km/h (1 Bft)
05.10.2009 13:50 12,9 C 12,6 C 12,2 C 18,7 C 18,7 C 5,8 C 66 % 70 % 100 % 1018,6 hPa 0,0 l/m 2,4 km/h (1 Bft) S-SW 202 5 min 0,9 UV-I 6,7 C 18,7 C 0,0 km/h (0 Bft)
05.10.2009 13:55 12,9 C 12,6 C 12,4 C 19,3 C 19,3 C 6,4 C 66 % 69 % 100 % 1018,6 hPa 0,0 l/m 1,0 km/h (0 Bft) NO 45 5 min 0,9 UV-I 6,7 C 19,3 C 0,0 km/h (0 Bft)
05.10.2009 14:00 13,1 C 12,6 C 12,5 C 18,8 C 18,8 C 5,7 C 66 % 71 % 100 % 1018,6 hPa 0,0 l/m 0,6 km/h (0 Bft) W-SW 247 5 min 0,9 UV-I 6,9 C 18,8 C 3,4 km/h (1 Bft)
05.10.2009 14:10 12,9 C 12,6 C 12,6 C 17,5 C 17,5 C 4,6 C 67 % 71 % 100 % 1017,8 hPa 0,0 l/m 1,4 km/h (1 Bft) S-SO 157 10 min 0,7 UV-I 6,9 C 17,5 C 0,0 km/h (0 Bft)
05.10.2009 14:15 12,9 C 12,6 C 12,6 C 16,7 C 16,7 C 3,8 C 66 % 72 % 100 % 1017,8 hPa 0,0 l/m 1,1 km/h (1 Bft) N-NO 22 5 min 0,7 UV-I 6,7 C 16,7 C 0,0 km/h (0 Bft)
05.10.2009 14:20 12,9 C 12,6 C 12,7 C 15,8 C 15,8 C 2,9 C 67 % 73 % 76 % 1017,8 hPa 0,0 l/m 0,8 km/h (0 Bft) S-SO 157 0 min 0,7 UV-I 6,9 C 15,8 C 3,2 km/h (1 Bft)
05.10.2009 14:25 12,9 C 12,6 C 12,7 C 15,5 C 15,5 C 2,6 C 67 % 72 % 68 % 1017,8 hPa 0,0 l/m 1,1 km/h (1 Bft) W-SW 247 0 min 0,7 UV-I 6,9 C 15,5 C 5,0 km/h (1 Bft)
05.10.2009 14:30 13,0 C 12,7 C 12,8 C 15,3 C 15,3 C 2,3 C 66 % 72 % 61 % 1017,8 hPa 0,0 l/m 1,6 km/h (1 Bft) N-NW 337 0 min 0,8 UV-I 6,8 C 15,3 C 0,0 km/h (0 Bft)
05.10.2009 14:35 13,1 C 12,7 C 12,9 C 15,6 C 15,6 C 2,5 C 66 % 73 % 66 % 1017,8 hPa 0,0 l/m 1,1 km/h (1 Bft) N-NW 337 0 min 0,8 UV-I 6,9 C 15,6 C 0,0 km/h (0 Bft)
05.10.2009 14:40 13,0 C 12,7 C 12,9 C 15,5 C 15,5 C 2,5 C 67 % 72 % 66 % 1017,8 hPa 0,0 l/m 0,0 km/h (0 Bft) S-SW 202 0 min 0,7 UV-I 7,0 C 15,5 C 0,0 km/h (0 Bft)
05.10.2009 14:45 12,9 C 12,7 C 12,8 C 15,3 C 15,3 C 2,4 C 67 % 72 % 63 % 1017,5 hPa 0,0 l/m 0,2 km/h (0 Bft) W-SW 247 0 min 0,7 UV-I 6,9 C 15,3 C 0,0 km/h (0 Bft)
05.10.2009 14:50 13,0 C 12,7 C 12,9 C 15,1 C 15,1 C 2,1 C 66 % 69 % 55 % 1017,5 hPa 0,0 l/m 0,6 km/h (0 Bft) N-NW 337 0 min 0,7 UV-I 6,8 C 15,1 C 0,0 km/h (0 Bft)
05.10.2009 14:55 13,1 C 12,7 C 12,8 C 15,1 C 15,1 C 2,0 C 67 % 70 % 53 % 1017,5 hPa 0,0 l/m 0,5 km/h (0 Bft) N-NO 22 0 min 0,6 UV-I 7,1 C 15,1 C 0,0 km/h (0 Bft)
05.10.2009 15:00 13,1 C 12,7 C 12,8 C 15,2 C 15,2 C 2,1 C 67 % 71 % 55 % 1017,5 hPa 0,0 l/m 0,0 km/h (0 Bft) N-NW 337 0 min 0,5 UV-I 7,1 C 15,2 C 0,0 km/h (0 Bft)
05.10.2009 15:10 13,1 C 12,7 C 12,8 C 15,1 C 15,1 C 2,0 C 66 % 71 % 53 % 1017,1 hPa 0,0 l/m 0,0 km/h (0 Bft) NW 315 0 min 0,4 UV-I 6,9 C 15,1 C 0,0 km/h (0 Bft)
05.10.2009 15:15 13,0 C 12,7 C 12,9 C 15,0 C 15,0 C 2,0 C 66 % 70 % 53 % 1017,1 hPa 0,0 l/m 0,0 km/h (0 Bft) NW 315 0 min 0,3 UV-I 6,8 C 15,0 C 0,0 km/h (0 Bft)
05.10.2009 15:20 12,9 C 12,8 C 12,8 C 14,9 C 14,9 C 2,0 C 67 % 70 % 53 % 1017,1 hPa 0,0 l/m 0,3 km/h (0 Bft) O-NO 67 0 min 0,3 UV-I 6,9 C 14,9 C 3,9 km/h (1 Bft)
05.10.2009 15:25 12,9 C 12,8 C 12,7 C 14,6 C 14,6 C 1,7 C 67 % 72 % 45 % 1016,8 hPa 0,0 l/m 1,0 km/h (0 Bft) O 90 0 min 0,3 UV-I 6,9 C 14,6 C 3,1 km/h (1 Bft)
05.10.2009 15:30 12,9 C 12,8 C 12,7 C 14,3 C 14,3 C 1,4 C 67 % 71 % 37 % 1016,8 hPa 0,0 l/m 2,1 km/h (1 Bft) O 90 0 min 0,3 UV-I 6,9 C 14,3 C 2,6 km/h (1 Bft)
05.10.2009 15:35 12,9 C 12,8 C 12,7 C 14,2 C 14,2 C 1,3 C 68 % 71 % 34 % 1016,8 hPa 0,0 l/m 1,6 km/h (1 Bft) NO 45 0 min 0,3 UV-I 7,1 C 14,2 C 1,6 km/h (1 Bft)
05.10.2009 15:40 13,0 C 12,8 C 12,7 C 14,4 C 14,4 C 1,4 C 68 % 71 % 37 % 1016,8 hPa 0,0 l/m 0,6 km/h (0 Bft) NO 45 0 min 0,3 UV-I 7,2 C 14,4 C 2,3 km/h (1 Bft)
05.10.2009 15:45 13,0 C 12,8 C 12,8 C 14,7 C 14,7 C 1,7 C 68 % 70 % 45 % 1016,6 hPa 0,0 l/m 0,5 km/h (0 Bft) O-NO 67 0 min 0,4 UV-I 7,2 C 14,7 C 0,0 km/h (0 Bft)
05.10.2009 15:50 13,1 C 12,8 C 13,0 C 14,7 C 14,7 C 1,6 C 68 % 70 % 42 % 1016,6 hPa 0,0 l/m 0,5 km/h (0 Bft) NO 45 0 min 0,4 UV-I 7,3 C 14,7 C 0,0 km/h (0 Bft)
05.10.2009 15:55 13,1 C 12,8 C 12,8 C 14,7 C 14,7 C 1,6 C 69 % 71 % 42 % 1016,6 hPa 0,0 l/m 0,5 km/h (0 Bft) N-NW 337 0 min 0,3 UV-I 7,5 C 14,7 C 2,9 km/h (1 Bft)
05.10.2009 16:00 13,1 C 12,8 C 12,8 C 14,4 C 14,4 C 1,3 C 69 % 72 % 34 % 1016,6 hPa 0,0 l/m 1,3 km/h (1 Bft) O 90 0 min 0,2 UV-I 7,5 C 14,4 C 1,8 km/h (1 Bft)
05.10.2009 16:10 13,1 C 12,8 C 12,8 C 14,1 C 14,1 C 1,0 C 69 % 72 % 26 % 1016,6 hPa 0,0 l/m 1,9 km/h (1 Bft) O-NO 67 0 min 0,2 UV-I 7,5 C 14,1 C 3,9 km/h (1 Bft)
05.10.2009 16:15 13,1 C 12,8 C 12,8 C 14,0 C 14,0 C 0,9 C 69 % 72 % 24 % 1016,6 hPa 0,0 l/m 2,3 km/h (1 Bft) O-NO 67 0 min 0,1 UV-I 7,5 C 14,0 C 2,7 km/h (1 Bft)
05.10.2009 16:20 13,0 C 12,9 C 12,9 C 13,9 C 13,9 C 0,9 C 69 % 72 % 24 % 1016,6 hPa 0,0 l/m 1,4 km/h (1 Bft) NO 45 0 min 0,1 UV-I 7,4 C 13,9 C 0,0 km/h (0 Bft)
05.10.2009 16:25 12,9 C 12,9 C 12,8 C 13,8 C 13,8 C 0,9 C 69 % 73 % 24 % 1016,5 hPa 0,0 l/m 1,3 km/h (1 Bft) O-NO 67 0 min 0,1 UV-I 7,4 C 13,8 C 1,9 km/h (1 Bft)
05.10.2009 16:30 12,9 C 12,9 C 12,7 C 13,7 C 13,7 C 0,8 C 69 % 72 % 21 % 1016,5 hPa 0,0 l/m 1,8 km/h (1 Bft) O-NO 67 0 min 0,0 UV-I 7,4 C 13,7 C 2,1 km/h (1 Bft)
05.10.2009 16:35 12,9 C 12,9 C 12,7 C 13,6 C 13,6 C 0,7 C 69 % 72 % 18 % 1016,5 hPa 0,0 l/m 1,9 km/h (1 Bft) O-NO 67 0 min 0,0 UV-I 7,4 C 13,6 C 2,1 km/h (1 Bft)
05.10.2009 16:40 12,9 C 12,9 C 12,6 C 13,5 C 13,5 C 0,6 C 70 % 73 % 16 % 1016,5 hPa 0,0 l/m 1,8 km/h (1 Bft) O-NO 67 0 min 0,0 UV-I 7,6 C 13,5 C 0,0 km/h (0 Bft)
05.10.2009 16:45 12,8 C 12,9 C 12,7 C 13,5 C 13,5 C 0,7 C 71 % 74 % 18 % 1016,4 hPa 0,0 l/m 1,1 km/h (1 Bft) NO 45 0 min 0,0 UV-I 7,7 C 13,5 C 0,0 km/h (0 Bft)
05.10.2009 16:50 12,9 C 12,9 C 12,7 C 13,4 C 13,4 C 0,5 C 71 % 75 % 13 % 1016,4 hPa 0,0 l/m 0,3 km/h (0 Bft) O-NO 67 0 min 0,0 UV-I 7,8 C 13,4 C 3,5 km/h (1 Bft)
05.10.2009 16:55 12,8 C 12,9 C 12,6 C 13,3 C 13,3 C 0,5 C 70 % 73 % 13 % 1016,4 hPa 0,0 l/m 1,4 km/h (1 Bft) O-NO 67 0 min 0,0 UV-I 7,5 C 13,3 C 3,2 km/h (1 Bft)
05.10.2009 17:00 12,9 C 12,9 C 12,5 C 13,3 C 13,3 C 0,4 C 70 % 73 % 11 % 1016,4 hPa 0,0 l/m 2,9 km/h (1 Bft) O-NO 67 0 min 0,0 UV-I 7,6 C 13,3 C 2,1 km/h (1 Bft)
05.10.2009 17:11 12,8 C 12,9 C 12,5 C 13,1 C 13,1 C 0,3 C 70 % 74 % 8 % 1016,2 hPa 0,0 l/m 2,3 km/h (1 Bft) O 90 0 min 0,0 UV-I 7,5 C 13,1 C 3,2 km/h (1 Bft)
05.10.2009 17:15 12,7 C 12,9 C 12,5 C 13,0 C 13,0 C 0,3 C 70 % 73 % 8 % 1016,2 hPa 0,0 l/m 2,7 km/h (1 Bft) O-NO 67 0 min 0,0 UV-I 7,4 C 13,0 C 1,8 km/h (1 Bft)
05.10.2009 17:20 12,7 C 12,9 C 12,5 C 12,9 C 12,9 C 0,2 C 71 % 74 % 5 % 1016,2 hPa 0,0 l/m 2,4 km/h (1 Bft) O-NO 67 0 min 0,0 UV-I 7,6 C 12,9 C 2,6 km/h (1 Bft)
05.10.2009 17:25 12,6 C 12,9 C 12,4 C 12,9 C 12,9 C 0,3 C 71 % 74 % 8 % 1015,9 hPa 0,0 l/m 2,1 km/h (1 Bft) O-NO 67 0 min 0,0 UV-I 7,5 C 12,9 C 3,5 km/h (1 Bft)
05.10.2009 17:30 12,7 C 12,9 C 12,5 C 12,8 C 12,8 C 0,1 C 72 % 75 % 3 % 1015,9 hPa 0,0 l/m 1,8 km/h (1 Bft) O-NO 67 0 min 0,0 UV-I 7,8 C 12,8 C 2,1 km/h (1 Bft)
05.10.2009 17:35 12,7 C 12,9 C 12,5 C 12,8 C 12,8 C 0,1 C 72 % 75 % 3 % 1015,9 hPa 0,0 l/m 1,4 km/h (1 Bft) O 90 0 min 0,0 UV-I 7,8 C 12,8 C 1,9 km/h (1 Bft)
05.10.2009 17:40 12,7 C 12,9 C 12,4 C 12,7 C 12,7 C 0,0 C 72 % 75 % 0 % 1015,9 hPa 0,0 l/m 0,5 km/h (0 Bft) O-NO 67 0 min 0,0 UV-I 7,8 C 12,7 C 0,0 km/h (0 Bft)
05.10.2009 17:45 12,6 C 13,0 C 12,3 C 12,6 C 12,5 C 0,0 C 72 % 75 % 0 % 1016,1 hPa 0,0 l/m 0,2 km/h (0 Bft) O-NO 67 0 min 0,0 UV-I 7,7 C 12,5 C 0,0 km/h (0 Bft)
05.10.2009 17:50 12,5 C 13,0 C 12,3 C 12,5 C 12,4 C 0,0 C 73 % 76 % 0 % 1016,1 hPa 0,0 l/m 0,2 km/h (0 Bft) N-NO 22 0 min 0,0 UV-I 7,8 C 12,4 C 0,0 km/h (0 Bft)
05.10.2009 17:55 12,5 C 13,0 C 12,2 C 12,4 C 12,3 C 0,0 C 73 % 76 % 0 % 1016,1 hPa 0,0 l/m 0,2 km/h (0 Bft) O-NO 67 0 min 0,0 UV-I 7,8 C 12,3 C 2,3 km/h (1 Bft)
05.10.2009 18:00 12,4 C 13,0 C 12,3 C 12,4 C 12,3 C 0,0 C 74 % 77 % 0 % 1016,1 hPa 0,0 l/m 0,5 km/h (0 Bft) O-NO 67 0 min 0,0 UV-I 7,9 C 12,3 C 2,7 km/h (1 Bft)
05.10.2009 18:10 12,4 C 13,0 C 12,0 C 12,3 C 12,2 C 0,0 C 74 % 78 % 0 % 1016,1 hPa 0,0 l/m 0,3 km/h (0 Bft) O-NO 67 0 min 0,0 UV-I 7,9 C 12,2 C 0,0 km/h (0 Bft)
05.10.2009 18:15 12,3 C 13,0 C 12,0 C 12,2 C 12,1 C 0,0 C 75 % 79 % 0 % 1016,1 hPa 0,0 l/m 0,0 km/h (0 Bft) O-NO 67 0 min 0,0 UV-I 8,0 C 12,1 C 0,0 km/h (0 Bft)
05.10.2009 18:20 12,3 C 13,1 C 11,9 C 12,2 C 11,9 C 0,0 C 76 % 79 % 0 % 1016,1 hPa 0,0 l/m 0,0 km/h (0 Bft) O-NO 67 0 min 0,0 UV-I 8,2 C 11,9 C 0,0 km/h (0 Bft)
05.10.2009 18:25 12,2 C 13,3 C 11,9 C 12,0 C 11,7 C 0,0 C 77 % 80 % 0 % 1016,1 hPa 0,0 l/m 0,0 km/h (0 Bft) O-NO 67 0 min 0,0 UV-I 8,3 C 11,7 C 0,0 km/h (0 Bft)
05.10.2009 18:30 12,1 C 13,4 C 11,9 C 11,9 C 11,4 C 0,0 C 78 % 81 % 0 % 1016,1 hPa 0,0 l/m 0,0 km/h (0 Bft) NO 45 0 min 0,0 UV-I 8,4 C 11,4 C 0,0 km/h (0 Bft)
05.10.2009 18:35 12,1 C 13,4 C 11,7 C 11,8 C 11,1 C 0,0 C 79 % 81 % 0 % 1016,1 hPa 0,0 l/m 0,0 km/h (0 Bft) NO 45 0 min 0,0 UV-I 8,6 C 11,1 C 0,0 km/h (0 Bft)
05.10.2009 18:40 11,9 C 13,6 C 11,6 C 11,5 C 10,7 C 0,0 C 80 % 82 % 0 % 1016,1 hPa 0,0 l/m 0,0 km/h (0 Bft) NO 45 0 min 0,0 UV-I 8,6 C 10,7 C 0,0 km/h (0 Bft)
05.10.2009 18:45 11,9 C 13,6 C 11,5 C 11,5 C 10,6 C 0,0 C 81 % 83 % 0 % 1015,9 hPa 0,0 l/m 0,0 km/h (0 Bft) NO 45 0 min 0,0 UV-I 8,7 C 10,6 C 0,0 km/h (0 Bft)
05.10.2009 18:50 11,9 C 13,6 C 11,5 C 11,4 C 10,3 C 0,0 C 82 % 84 % 0 % 1015,9 hPa 0,0 l/m 0,0 km/h (0 Bft) NO 45 0 min 0,0 UV-I 8,9 C 10,3 C 0,0 km/h (0 Bft)
05.10.2009 18:55 11,7 C 13,6 C 11,3 C 11,2 C 10,3 C 0,0 C 82 % 84 % 0 % 1015,9 hPa 0,0 l/m 0,0 km/h (0 Bft) NO 45 0 min 0,0 UV-I 8,7 C 10,3 C 0,0 km/h (0 Bft)
05.10.2009 19:00 11,6 C 13,6 C 11,2 C 11,1 C 10,1 C 0,0 C 83 % 85 % 0 % 1015,9 hPa 0,7 l/m 0,0 km/h (0 Bft) NO 45 0 min 0,0 UV-I 8,8 C 10,1 C 0,0 km/h (0 Bft)
05.10.2009 19:10 11,6 C 13,6 C 11,0 C 11,1 C 10,1 C 0,0 C 84 % 86 % 0 % 1015,8 hPa 0,0 l/m 0,0 km/h (0 Bft) NO 45 0 min 0,0 UV-I 9,0 C 10,1 C 0,0 km/h (0 Bft)
05.10.2009 19:15 11,5 C 13,6 C 11,1 C 11,0 C 10,0 C 0,0 C 84 % 86 % 0 % 1015,8 hPa 0,0 l/m 0,0 km/h (0 Bft) NO 45 0 min 0,0 UV-I 8,9 C 10,0 C 0,0 km/h (0 Bft)
05.10.2009 19:20 11,4 C 13,7 C 10,9 C 10,9 C 10,0 C 0,0 C 85 % 87 % 0 % 1015,8 hPa 0,0 l/m 0,0 km/h (0 Bft) N 360 0 min 0,0 UV-I 9,0 C 10,0 C 0,0 km/h (0 Bft)
05.10.2009 19:25 11,5 C 13,6 C 10,9 C 11,0 C 10,0 C 0,0 C 85 % 88 % 0 % 1015,7 hPa 0,0 l/m 0,0 km/h (0 Bft) N 360 0 min 0,0 UV-I 9,1 C 10,0 C 0,0 km/h (0 Bft)
05.10.2009 19:30 11,3 C 13,6 C 10,8 C 10,8 C 9,9 C 0,0 C 85 % 89 % 0 % 1015,7 hPa 0,0 l/m 0,0 km/h (0 Bft) N-NO 22 0 min 0,0 UV-I 8,9 C 9,9 C 0,0 km/h (0 Bft)
05.10.2009 19:35 11,3 C 13,6 C 10,7 C 10,8 C 9,9 C 0,0 C 85 % 89 % 0 % 1015,7 hPa 0,0 l/m 0,0 km/h (0 Bft) N-NO 22 0 min 0,0 UV-I 8,9 C 9,9 C 0,0 km/h (0 Bft)
05.10.2009 19:40 11,3 C 13,6 C 10,6 C 10,8 C 9,9 C 0,0 C 86 % 89 % 0 % 1015,7 hPa 0,0 l/m 0,0 km/h (0 Bft) N 360 0 min 0,0 UV-I 9,0 C 9,9 C 0,0 km/h (0 Bft)
05.10.2009 19:45 11,3 C 13,6 C 10,6 C 10,9 C 10,0 C 0,0 C 87 % 90 % 0 % 1016,1 hPa 0,0 l/m 0,0 km/h (0 Bft) SW 225 0 min 0,0 UV-I 9,2 C 10,0 C 0,0 km/h (0 Bft)
05.10.2009 19:50 11,3 C 13,6 C 10,6 C 10,9 C 10,1 C 0,0 C 88 % 91 % 0 % 1016,1 hPa 0,0 l/m 0,0 km/h (0 Bft) S-SW 202 0 min 0,0 UV-I 9,4 C 10,1 C 0,0 km/h (0 Bft)
05.10.2009 19:55 11,2 C 13,6 C 10,6 C 10,8 C 10,1 C 0,0 C 88 % 91 % 0 % 1016,1 hPa 0,0 l/m 0,0 km/h (0 Bft) S-SW 202 0 min 0,0 UV-I 9,3 C 10,1 C 0,0 km/h (0 Bft)
05.10.2009 20:00 11,2 C 13,6 C 10,6 C 10,8 C 10,1 C 0,0 C 88 % 92 % 0 % 1016,1 hPa 0,0 l/m 0,0 km/h (0 Bft) O-NO 67 0 min 0,0 UV-I 9,3 C 10,1 C 0,0 km/h (0 Bft)
05.10.2009 20:10 11,1 C 13,6 C 10,5 C 10,8 C 10,1 C 0,0 C 89 % 93 % 0 % 1015,8 hPa 0,7 l/m 0,0 km/h (0 Bft) O-NO 67 0 min 0,0 UV-I 9,4 C 10,1 C 0,0 km/h (0 Bft)
05.10.2009 20:15 11,1 C 13,6 C 10,4 C 10,8 C 10,1 C 0,0 C 89 % 93 % 0 % 1015,8 hPa 0,0 l/m 0,0 km/h (0 Bft) O-NO 67 0 min 0,0 UV-I 9,4 C 10,1 C 0,0 km/h (0 Bft)
05.10.2009 20:20 11,1 C 13,6 C 10,5 C 10,8 C 10,1 C 0,0 C 89 % 94 % 0 % 1015,8 hPa 0,0 l/m 0,0 km/h (0 Bft) O-NO 67 0 min 0,0 UV-I 9,4 C 10,1 C 0,0 km/h (0 Bft)
05.10.2009 20:25 11,1 C 13,6 C 10,5 C 10,8 C 10,1 C 0,0 C 89 % 95 % 0 % 1015,4 hPa 0,0 l/m 0,0 km/h (0 Bft) N-NW 337 0 min 0,0 UV-I 9,4 C 10,1 C 0,0 km/h (0 Bft)
05.10.2009 20:30 11,1 C 13,6 C 10,3 C 10,8 C 10,1 C 0,0 C 89 % 95 % 0 % 1015,4 hPa 0,7 l/m 0,0 km/h (0 Bft) NO 45 0 min 0,0 UV-I 9,4 C 10,1 C 0,0 km/h (0 Bft)
05.10.2009 20:35 10,9 C 13,6 C 10,2 C 10,6 C 10,1 C 0,0 C 89 % 95 % 0 % 1015,4 hPa 0,0 l/m 0,0 km/h (0 Bft) NO 45 0 min 0,0 UV-I 9,2 C 10,1 C 0,0 km/h (0 Bft)
05.10.2009 20:40 10,9 C 13,6 C 10,3 C 10,6 C 10,0 C 0,0 C 90 % 95 % 0 % 1015,4 hPa 0,0 l/m 0,0 km/h (0 Bft) NO 45 0 min 0,0 UV-I 9,3 C 10,0 C 0,0 km/h (0 Bft)
05.10.2009 20:45 10,9 C 13,6 C 10,3 C 10,6 C 10,0 C 0,0 C 90 % 95 % 0 % 1015,7 hPa 0,0 l/m 0,0 km/h (0 Bft) NO 45 0 min 0,0 UV-I 9,3 C 10,0 C 0,0 km/h (0 Bft)
05.10.2009 20:50 10,7 C 13,6 C 10,1 C 10,4 C 9,9 C 0,0 C 90 % 95 % 0 % 1015,7 hPa 0,7 l/m 0,0 km/h (0 Bft) O-NO 67 0 min 0,0 UV-I 9,1 C 9,9 C 0,0 km/h (0 Bft)
05.10.2009 20:55 10,7 C 13,6 C 10,1 C 10,4 C 9,9 C 0,0 C 91 % 95 % 0 % 1015,7 hPa 0,0 l/m 0,0 km/h (0 Bft) NW 315 0 min 0,0 UV-I 9,3 C 9,9 C 0,0 km/h (0 Bft)
05.10.2009 21:00 10,7 C 13,6 C 10,1 C 10,4 C 9,9 C 0,0 C 91 % 96 % 0 % 1015,7 hPa 0,7 l/m 0,0 km/h (0 Bft) NW 315 0 min 0,0 UV-I 9,3 C 9,9 C 0,0 km/h (0 Bft)
05.10.2009 21:10 10,7 C 13,6 C 10,1 C 10,4 C 9,9 C 0,0 C 91 % 96 % 0 % 1015,9 hPa 0,0 l/m 0,0 km/h (0 Bft) NW 315 0 min 0,0 UV-I 9,3 C 9,9 C 0,0 km/h (0 Bft)
05.10.2009 21:15 10,6 C 13,6 C 10,0 C 10,4 C 9,9 C 0,0 C 91 % 96 % 0 % 1015,9 hPa 0,7 l/m 0,0 km/h (0 Bft) NW 315 0 min 0,0 UV-I 9,2 C 9,9 C 0,0 km/h (0 Bft)
05.10.2009 21:20 10,6 C 13,6 C 10,0 C 10,3 C 9,8 C 0,0 C 91 % 96 % 0 % 1015,9 hPa 0,0 l/m 0,0 km/h (0 Bft) NW 315 0 min 0,0 UV-I 9,2 C 9,8 C 0,0 km/h (0 Bft)
05.10.2009 21:25 10,5 C 13,6 C 10,0 C 10,3 C 9,8 C 0,0 C 91 % 96 % 0 % 1015,9 hPa 0,0 l/m 0,0 km/h (0 Bft) NW 315 0 min 0,0 UV-I 9,1 C 9,8 C 0,0 km/h (0 Bft)
05.10.2009 21:30 10,5 C 13,6 C 10,1 C 10,3 C 9,9 C 0,0 C 91 % 97 % 0 % 1015,9 hPa 0,0 l/m 0,0 km/h (0 Bft) O-NO 67 0 min 0,0 UV-I 9,1 C 9,9 C 0,0 km/h (0 Bft)
05.10.2009 21:35 10,4 C 13,6 C 10,0 C 10,2 C 9,9 C 0,0 C 92 % 97 % 0 % 1015,9 hPa 0,0 l/m 0,0 km/h (0 Bft) O-NO 67 0 min 0,0 UV-I 9,2 C 9,9 C 0,0 km/h (0 Bft)
05.10.2009 21:40 10,4 C 13,6 C 10,0 C 10,2 C 9,9 C 0,0 C 92 % 97 % 0 % 1015,9 hPa 0,0 l/m 0,0 km/h (0 Bft) O-SO 112 0 min 0,0 UV-I 9,2 C 9,9 C 0,0 km/h (0 Bft)
05.10.2009 21:45 10,5 C 13,6 C 10,1 C 10,3 C 9,9 C 0,0 C 92 % 97 % 0 % 1016,1 hPa 0,0 l/m 0,0 km/h (0 Bft) SW 225 0 min 0,0 UV-I 9,3 C 9,9 C 0,0 km/h (0 Bft)
05.10.2009 21:50 10,4 C 13,6 C 10,0 C 10,2 C 9,9 C 0,0 C 92 % 97 % 0 % 1016,1 hPa 0,0 l/m 0,0 km/h (0 Bft) O-SO 112 0 min 0,0 UV-I 9,2 C 9,9 C 0,0 km/h (0 Bft)
05.10.2009 21:55 10,5 C 13,6 C 10,0 C 10,3 C 9,9 C 0,0 C 92 % 97 % 0 % 1016,1 hPa 0,0 l/m 0,0 km/h (0 Bft) O-SO 112 0 min 0,0 UV-I 9,3 C 9,9 C 0,0 km/h (0 Bft)
05.10.2009 22:00 10,5 C 13,6 C 10,0 C 10,3 C 9,9 C 0,0 C 92 % 97 % 0 % 1016,1 hPa 0,0 l/m 0,0 km/h (0 Bft) O-SO 112 0 min 0,0 UV-I 9,3 C 9,9 C 0,0 km/h (0 Bft)
05.10.2009 22:10 10,3 C 13,6 C 10,1 C 10,2 C 9,9 C 0,0 C 92 % 97 % 0 % 1016,0 hPa 0,0 l/m 0,0 km/h (0 Bft) O 90 0 min 0,0 UV-I 9,1 C 9,9 C 0,0 km/h (0 Bft)
05.10.2009 22:15 10,4 C 13,6 C 10,0 C 10,2 C 9,9 C 0,0 C 92 % 97 % 0 % 1016,0 hPa 0,0 l/m 0,0 km/h (0 Bft) S 180 0 min 0,0 UV-I 9,2 C 9,9 C 0,0 km/h (0 Bft)
05.10.2009 22:20 10,4 C 13,6 C 10,0 C 10,2 C 9,9 C 0,0 C 92 % 97 % 0 % 1016,0 hPa 0,0 l/m 0,0 km/h (0 Bft) S 180 0 min 0,0 UV-I 9,2 C 9,9 C 0,0 km/h (0 Bft)
05.10.2009 22:25 10,5 C 13,6 C 10,1 C 10,3 C 9,9 C 0,0 C 93 % 97 % 0 % 1015,9 hPa 0,0 l/m 0,0 km/h (0 Bft) S 180 0 min 0,0 UV-I 9,4 C 9,9 C 0,0 km/h (0 Bft)
05.10.2009 22:30 10,5 C 13,6 C 10,1 C 10,3 C 9,9 C 0,0 C 93 % 97 % 0 % 1015,9 hPa 0,0 l/m 0,0 km/h (0 Bft) S 180 0 min 0,0 UV-I 9,4 C 9,9 C 0,0 km/h (0 Bft)
05.10.2009 22:35 10,4 C 13,6 C 10,1 C 10,3 C 10,0 C 0,0 C 93 % 98 % 0 % 1015,9 hPa 0,0 l/m 0,0 km/h (0 Bft) O-NO 67 0 min 0,0 UV-I 9,3 C 10,0 C 0,0 km/h (0 Bft)
05.10.2009 22:40 10,5 C 13,6 C 10,1 C 10,3 C 10,0 C 0,0 C 93 % 98 % 0 % 1015,9 hPa 0,0 l/m 0,0 km/h (0 Bft) N-NO 22 0 min 0,0 UV-I 9,4 C 10,0 C 0,0 km/h (0 Bft)
05.10.2009 22:45 10,5 C 13,6 C 10,3 C 10,3 C 10,0 C 0,0 C 93 % 98 % 0 % 1015,6 hPa 0,0 l/m 0,0 km/h (0 Bft) N-NO 22 0 min 0,0 UV-I 9,4 C 10,0 C 0,0 km/h (0 Bft)
05.10.2009 22:50 10,6 C 13,6 C 10,2 C 10,4 C 10,0 C 0,0 C 93 % 98 % 0 % 1015,6 hPa 0,0 l/m 0,0 km/h (0 Bft) N-NO 22 0 min 0,0 UV-I 9,5 C 10,0 C 0,0 km/h (0 Bft)
05.10.2009 22:55 10,5 C 13,6 C 10,1 C 10,3 C 10,0 C 0,0 C 93 % 98 % 0 % 1015,6 hPa 0,0 l/m 0,0 km/h (0 Bft) N-NW 337 0 min 0,0 UV-I 9,4 C 10,0 C 0,0 km/h (0 Bft)
05.10.2009 23:00 10,5 C 13,6 C 10,2 C 10,3 C 10,0 C 0,0 C 93 % 98 % 0 % 1015,6 hPa 0,0 l/m 0,0 km/h (0 Bft) N-NW 337 0 min 0,0 UV-I 9,4 C 10,0 C 0,0 km/h (0 Bft)
05.10.2009 23:10 10,6 C 13,6 C 10,3 C 10,4 C 10,0 C 0,0 C 93 % 98 % 0 % 1015,3 hPa 0,0 l/m 0,0 km/h (0 Bft) W-SW 247 0 min 0,0 UV-I 9,5 C 10,0 C 0,0 km/h (0 Bft)
05.10.2009 23:15 10,6 C 13,6 C 10,3 C 10,4 C 10,0 C 0,0 C 93 % 98 % 0 % 1015,3 hPa 0,0 l/m 0,0 km/h (0 Bft) W-SW 247 0 min 0,0 UV-I 9,5 C 10,0 C 0,0 km/h (0 Bft)
05.10.2009 23:20 10,7 C 13,6 C 10,2 C 10,5 C 10,0 C 0,0 C 93 % 98 % 0 % 1015,3 hPa 0,0 l/m 0,0 km/h (0 Bft) W-SW 247 0 min 0,0 UV-I 9,6 C 10,0 C 0,0 km/h (0 Bft)
05.10.2009 23:25 10,7 C 13,6 C 10,3 C 10,5 C 10,0 C 0,0 C 93 % 98 % 0 % 1016,2 hPa 0,0 l/m 0,0 km/h (0 Bft) W-SW 247 0 min 0,0 UV-I 9,6 C 10,0 C 0,0 km/h (0 Bft)
05.10.2009 23:30 10,7 C 13,6 C 10,2 C 10,5 C 10,0 C 0,0 C 93 % 98 % 0 % 1016,2 hPa 0,0 l/m 0,0 km/h (0 Bft) W-SW 247 0 min 0,0 UV-I 9,6 C 10,0 C 0,0 km/h (0 Bft)
05.10.2009 23:35 10,7 C 13,6 C 10,3 C 10,5 C 10,1 C 0,0 C 93 % 98 % 0 % 1016,2 hPa 0,0 l/m 0,0 km/h (0 Bft) W-SW 247 0 min 0,0 UV-I 9,6 C 10,1 C 0,0 km/h (0 Bft)
05.10.2009 23:40 10,7 C 13,6 C 10,2 C 10,5 C 10,1 C 0,0 C 93 % 98 % 0 % 1016,2 hPa 0,0 l/m 0,0 km/h (0 Bft) W-SW 247 0 min 0,0 UV-I 9,6 C 10,1 C 0,0 km/h (0 Bft)
05.10.2009 23:45 10,6 C 13,6 C 10,2 C 10,4 C 10,0 C 0,0 C 93 % 98 % 0 % 1015,4 hPa 0,0 l/m 0,0 km/h (0 Bft) W-SW 247 0 min 0,0 UV-I 9,5 C 10,0 C 0,0 km/h (0 Bft)
05.10.2009 23:50 10,7 C 13,6 C 10,3 C 10,5 C 10,1 C 0,0 C 93 % 98 % 0 % 1015,4 hPa 0,0 l/m 0,0 km/h (0 Bft) W-SW 247 0 min 0,0 UV-I 9,6 C 10,1 C 0,0 km/h (0 Bft)
05.10.2009 23:55 10,7 C 13,6 C 10,2 C 10,5 C 10,1 C 0,0 C 93 % 98 % 0 % 1015,4 hPa 0,0 l/m 0,0 km/h (0 Bft) W 270 0 min 0,0 UV-I 9,6 C 10,1 C 0,0 km/h (0 Bft)
_ Min-Zeit 07:25 11:20 07:30 07:25 07:25 00:00 12:50 13:55 00:00 00:00 - 03:45 - - - 00:00 12:50 07:25 01:25
Minimum _ 8,1 C 12,5 C 7,2 C 7,4 C 6,0 C 0,0 C 64 % 69 % 0 % 1013,9 hPa - 0,0 km/h (0 Bft) - - - 0,0 UV-I 5,4 C 6,0 C 0,0 km/h (0 Bft)
_ Max-Zeit 14:00 19:20 15:50 13:40 13:40 13:10 22:25 22:35 12:35 10:45 19:00 00:00 - - 13:10 12:30 23:20 13:40 00:00
Maximum _ 13,1 C 13,7 C 13,0 C 19,9 C 19,9 C 7,4 C 93 % 98 % 100 % 1019,2 hPa 0,7 l/m 6,8 km/h
SW (2 Bft)
- - 10 min 1,5 UV-I 9,6 C 19,9 C 12,9 km/h
SW (3 Bft)
Durchschnitt _ 10,8 C 13,2 C 10,2 C 11,2 C 10,7 C 0,7 C 81 % 87 % 14 % 1016,8 hPa #4,1 l/m 1,2 km/h (1 Bft) SW - #1:50 h 0,6 UV-I 7,6 C 10,6 C 1,5 km/h (1 Bft)
2013 www.wetterstation-wechselburg.de